[[{"header":{"parameterUnit":"m.s-1","parameterCategory":1,"la1":30.2991,"la2":30.254,"lo1":-89.0895,"lo2":-89.0444,"dy":0.0017,"dx":0.0017,"nx":28,"ny":28,"refTime":"2025-03-24T09:00:00:Z","depth":0,"parameterNumber":2,"parameterNumberName":"U-component_of_WINDS"},"data":[0,0,0,0,0,0,0,0,0,0,0,0,0,0,0,0,0,0,0,0,0,0,0,0,0,0,0,0,0,0,0,0,0,0,0,0,0,0,0,0,0,0,0,0,0,0,0,0,0,0,0,0,0,0,0,0,0,0,1.1534,1.1534,0,1.1599,1.16,1.16,1.1605,1.1605,1.1604,1.1603,1.1673,1.1675,1.1678,0,0,0,0,0,0,0,0,0,0,0,0,0,1.1416,1.1418,1.1534,1.1534,1.1535,1.1599,1.16,1.1601,1.1606,1.1605,1.1604,1.1603,1.1672,1.1675,1.1678,0,0,0,0,0,0,0,0,0,0,0,0,0,1.1473,1.1419,1.1533,1.1545,1.1547,1.1599,1.16,1.1601,1.1606,1.1605,1.1604,1.1603,1.1671,1.1675,1.1678,1.1723,0,0,1.169,1.1692,0,0,0,0,0,0,0,0,1.147,1.1477,1.1543,1.1545,1.1547,1.1593,1.1584,1.1642,1.1606,1.1584,1.1603,1.1602,1.1647,1.1653,1.1668,1.1727,1.173,1.169,1.1693,1.1694,1.1695,0,0,0,0,0,0,0,1.1466,1.1475,1.1559,1.1544,1.1546,1.1548,1.1555,1.1595,1.1621,1.1585,1.1586,1.1593,1.1648,1.1664,1.1669,1.1731,1.169,1.1694,1.1696,1.1697,1.1831,1.1832,0,0,0,0,0,0,1.1459,1.1471,1.1557,1.1561,1.1505,1.1551,1.1559,1.1579,1.162,1.1625,1.1594,1.1593,1.1658,1.1665,1.1672,1.1728,1.1694,1.1698,1.17,1.183,1.1831,1.1833,0,0,0,0,0,0,1.1457,1.1467,1.1555,1.1516,1.1528,1.1554,1.1577,1.1581,1.1597,1.1627,1.1632,1.1606,1.1657,1.1666,1.1711,1.173,1.1699,1.1703,1.1828,1.183,1.1832,1.184,0,0,0,0,0,0,1.1453,1.1466,1.1483,1.1517,1.153,1.1592,1.1578,1.1583,1.1603,1.1603,1.1639,1.1644,1.1657,1.1705,1.1714,1.1735,1.1706,1.1827,1.1829,1.1831,1.1838,1.1842,1.1846,0,0,0,0,0,1.1449,1.1483,1.1483,1.1494,1.1551,1.1593,1.16,1.1614,1.1605,1.1622,1.1642,1.1643,1.1726,1.1709,1.172,1.1742,1.1825,1.1828,1.1831,1.1837,1.1841,1.1845,0,0,0,0,0,0,1.1451,1.1487,1.1489,1.1534,1.156,1.1593,1.1616,1.1619,1.1649,1.1647,1.1664,1.1672,1.1716,1.1734,1.1714,1.1789,1.1775,1.178,1.1776,1.178,1.1784,1.1779,1.1709,0,0,0,0,0,1.1456,1.1486,1.1517,1.1554,1.1567,1.1589,1.1608,1.1616,1.1644,1.1656,1.1679,1.1707,1.1739,1.1761,1.1792,1.1841,1.1849,1.1861,1.1865,1.1868,1.1872,1.19,1.1906,1.1842,1.1842,1.1842,0,0,1.1468,1.1492,1.151,1.1555,1.1576,1.1608,1.1598,1.1632,1.1656,1.1661,1.1704,1.1722,1.1755,1.1801,1.1823,1.1817,1.1892,1.1871,1.1873,1.1877,1.1904,1.191,1.1915,1.1844,1.1844,1.1843,0,0,1.1506,1.1526,1.156,1.1582,1.1614,1.1628,1.1637,1.167,1.1682,1.1725,1.173,1.1759,1.1815,1.1838,1.1857,1.1904,1.1907,1.1914,1.1934,1.1961,1.1966,1.197,1.1988,1.1995,1.1919,1.1919,1.1919,0,1.1517,1.1564,1.1577,1.1611,1.1631,1.1637,1.1672,1.1692,1.1733,1.1748,1.174,1.1811,1.1833,1.1886,1.1897,1.1912,1.1923,1.1911,1.1964,1.1969,1.1973,1.1991,1.1997,1.1919,1.1919,1.1919,1.1919,0,1.1577,1.1609,1.1633,1.1672,1.1695,1.1729,1.1748,1.177,1.1777,1.1793,1.1837,1.1864,1.1902,1.1915,1.1922,1.1969,1.1964,1.196,1.1947,1.198,1.1996,1.2003,1.1921,1.192,1.192,1.192,0,0,1.1617,1.1664,1.1672,1.1691,1.1727,1.1753,1.1788,1.1824,1.1843,1.1871,1.1902,1.1949,1.1946,1.1967,1.1977,1.2001,1.2038,1.1994,1.1995,1.2002,1.2093,1.2097,1.2104,1.204,1.2041,1.2042,1.2091,0,1.166,1.1722,1.1735,1.1789,1.182,1.1826,1.1857,1.1883,1.1899,1.1928,1.1946,1.1979,1.1971,1.1985,1.2008,1.2028,1.2057,1.2025,1.2069,1.2071,1.2062,1.2113,1.2117,1.2161,1.2097,1.2098,1.2099,0,1.1719,1.1748,1.1805,1.1838,1.1852,1.1879,1.1914,1.1941,1.1971,1.1981,1.2006,1.2013,1.2051,1.2035,1.2088,1.2066,1.2085,1.2098,1.21,1.2105,1.2088,1.2121,1.2176,1.2183,1.2109,1.2109,1.2108,0,1.1744,1.1798,1.1839,1.1855,1.1894,1.1913,1.1931,1.196,1.1981,1.2012,1.2026,1.206,1.208,1.2107,1.2124,1.2111,1.2176,1.2161,1.2186,1.2186,1.2201,1.22,1.2261,1.2211,1.2211,1.2211,1.2211,0,1.1791,1.1826,1.1852,1.1877,1.1917,1.1932,1.1971,1.1988,1.2014,1.2044,1.2051,1.2079,1.2099,1.213,1.2143,1.2186,1.2194,1.2204,1.2207,1.2204,1.2203,1.2217,1.2215,1.2213,1.2212,1.2212,1.2211,0,1.1827,1.1845,1.1891,1.1924,1.1933,1.1961,1.199,1.2016,1.2032,1.2069,1.2079,1.2104,1.2141,1.216,1.2207,1.2216,1.2264,1.2265,1.2253,1.2255,1.2279,1.2277,1.2352,1.2364,1.2306,1.2306,1.2307,0,1.1856,1.1883,1.192,1.194,1.1958,1.199,1.2012,1.2028,1.2051,1.2087,1.2109,1.2146,1.2176,1.2235,1.2258,1.2294,1.2297,1.2321,1.2302,1.2298,1.2298,1.2297,1.23,1.2324,1.2325,1.2325,1.2325,0,1.1907,1.1915,1.1945,1.198,1.2005,1.2033,1.2061,1.2077,1.2098,1.2123,1.2161,1.2185,1.2232,1.2269,1.2306,1.2325,1.233,1.2331,1.2339,1.2336,1.2329,1.2334,1.2264,1.2329,1.2329,1.2329,1.2328,1.2328,1.1941,1.1965,1.1995,1.203,1.2052,1.2078,1.2104,1.2123,1.2154,1.2194,1.2202,1.2242,1.2272,1.2323,1.2343,1.2375,1.237,1.2381,1.2384,1.2387,1.2388,1.2323,1.2382,1.2382,1.2381,1.2381,1.2381,0,1.1993,1.2012,1.2044,1.2082,1.2109,1.211,1.2141,1.2164,1.2199,1.2227,1.2257,1.2301,1.2337,1.2363,1.24,1.2421,1.2424,1.243,1.2429,1.2434,1.239,1.238,1.2427,1.2427,1.2427,1.2427,1.2427,1.2427,1.2023,1.2065,1.2076,1.213,1.215,1.2189,1.2206,1.2231,1.2253,1.2301,1.2331,1.2348,1.2375,1.2415,1.2448,1.2455,1.2469,1.2475,1.2482,1.2441,1.2437,1.2432,1.2423,1.2478,1.2478,1.2523,1.2524,1.2524]},{"header":{"parameterUnit":"m.s-1","parameterCategory":1,"la1":30.2991,"la2":30.254,"lo1":-89.0895,"lo2":-89.0444,"dy":0.0017,"dx":0.0017,"nx":28,"ny":28,"refTime":"2025-03-24T09:00:00:Z","depth":0,"parameterNumber":3,"parameterNumberName":"V-component_of_WINDS"},"data":[0,0,0,0,0,0,0,0,0,0,0,0,0,0,0,0,0,0,0,0,0,0,0,0,0,0,0,0,0,0,0,0,0,0,0,0,0,0,0,0,0,0,0,0,0,0,0,0,0,0,0,0,0,0,0,0,0,0,1.7485,1.7486,0,1.7549,1.755,1.755,1.7555,1.7554,1.7553,1.7553,1.7615,1.7617,1.7619,0,0,0,0,0,0,0,0,0,0,0,0,0,1.7359,1.7362,1.7485,1.7486,1.7487,1.7549,1.755,1.755,1.7555,1.7554,1.7553,1.7552,1.7614,1.7617,1.7619,0,0,0,0,0,0,0,0,0,0,0,0,0,1.7418,1.7363,1.7485,1.7496,1.7498,1.7549,1.755,1.7551,1.7555,1.7554,1.7553,1.7552,1.7613,1.7616,1.762,1.7662,0,0,1.763,1.7632,0,0,0,0,0,0,0,0,1.7414,1.7422,1.7494,1.7496,1.7498,1.7543,1.7528,1.7588,1.7555,1.7533,1.7553,1.7551,1.7591,1.7596,1.7611,1.7665,1.7668,1.7631,1.7633,1.7634,1.7635,0,0,0,0,0,0,0,1.741,1.7419,1.751,1.7495,1.7497,1.7496,1.7503,1.7539,1.7567,1.7535,1.7536,1.7543,1.7592,1.7607,1.7612,1.7669,1.763,1.7634,1.7636,1.7637,1.7753,1.7754,0,0,0,0,0,0,1.7405,1.7416,1.7508,1.7512,1.7453,1.7499,1.7507,1.7529,1.7567,1.7572,1.7544,1.7543,1.7602,1.7608,1.7614,1.7662,1.7634,1.7637,1.7639,1.7752,1.7754,1.7755,0,0,0,0,0,0,1.7402,1.7413,1.7506,1.7464,1.7476,1.7502,1.7527,1.7531,1.7546,1.7574,1.7578,1.7555,1.7601,1.7609,1.7649,1.7664,1.7639,1.7642,1.7751,1.7753,1.7754,1.7761,0,0,0,0,0,0,1.7399,1.7412,1.7431,1.7465,1.7478,1.7542,1.7528,1.7533,1.7553,1.7552,1.7585,1.759,1.7601,1.7644,1.7652,1.7669,1.7645,1.775,1.7752,1.7754,1.7759,1.7762,1.7765,0,0,0,0,0,1.7394,1.7431,1.7432,1.7443,1.7502,1.7543,1.755,1.7564,1.7554,1.7571,1.7587,1.7589,1.7661,1.7648,1.7657,1.7675,1.7749,1.7751,1.7754,1.7758,1.7761,1.7765,0,0,0,0,0,0,1.7399,1.7436,1.7437,1.7487,1.7511,1.7543,1.7566,1.7568,1.7595,1.7594,1.7608,1.7615,1.7653,1.7668,1.7652,1.7714,1.7704,1.7708,1.7703,1.7707,1.771,1.7705,1.7648,0,0,0,0,0,1.7406,1.7437,1.7467,1.7507,1.7519,1.754,1.7558,1.7566,1.7592,1.7602,1.7622,1.7646,1.7673,1.7691,1.7719,1.7761,1.7765,1.7777,1.778,1.7782,1.7785,1.7803,1.7808,1.7762,1.7762,1.7762,0,0,1.742,1.7444,1.7463,1.7509,1.7529,1.7557,1.7549,1.7582,1.7602,1.7607,1.7644,1.7659,1.7686,1.7725,1.7744,1.7739,1.7799,1.7785,1.7787,1.7789,1.7806,1.781,1.7814,1.7764,1.7764,1.7763,0,0,1.7461,1.7484,1.7517,1.7536,1.7566,1.7579,1.7586,1.7617,1.7626,1.7664,1.7666,1.769,1.7739,1.7756,1.7771,1.7811,1.7811,1.7819,1.7834,1.7851,1.7854,1.7858,1.7868,1.7872,1.7822,1.7822,1.7822,0,1.7475,1.752,1.7534,1.7565,1.7582,1.7586,1.7618,1.7635,1.7672,1.7683,1.7677,1.7734,1.7753,1.7794,1.7803,1.7817,1.7823,1.7816,1.7853,1.7856,1.7859,1.7869,1.7874,1.7823,1.7823,1.7823,1.7823,0,1.7533,1.7564,1.7587,1.7621,1.7641,1.7672,1.7687,1.7706,1.771,1.7722,1.7757,1.7779,1.7808,1.7818,1.7824,1.7858,1.7854,1.7851,1.784,1.7864,1.7873,1.7878,1.7824,1.7824,1.7824,1.7823,0,0,1.7581,1.7618,1.7626,1.7639,1.767,1.7693,1.7721,1.775,1.7763,1.7787,1.7808,1.7847,1.7842,1.7859,1.7866,1.7881,1.7905,1.7875,1.7876,1.7877,1.7939,1.794,1.7945,1.7906,1.7906,1.7907,1.7936,0,1.7622,1.7675,1.7685,1.7729,1.7754,1.7756,1.778,1.78,1.781,1.7832,1.7843,1.7868,1.7862,1.7872,1.7887,1.7899,1.7918,1.7898,1.7923,1.7924,1.7915,1.7951,1.7953,1.7979,1.794,1.7941,1.7941,0,1.7678,1.7701,1.7747,1.7769,1.778,1.7802,1.7825,1.7847,1.7867,1.7873,1.7889,1.7893,1.7919,1.7907,1.794,1.7926,1.7937,1.7944,1.7945,1.7947,1.7933,1.7951,1.7989,1.7992,1.7948,1.7948,1.7947,0,1.7703,1.7746,1.7778,1.7789,1.7816,1.7831,1.7842,1.7861,1.7876,1.7896,1.7904,1.7927,1.7939,1.7955,1.7964,1.7955,1.7995,1.7985,1.7998,1.7998,1.8006,1.8005,1.8044,1.8016,1.8016,1.8016,1.8016,0,1.7746,1.7773,1.7788,1.7808,1.7837,1.7846,1.7874,1.7885,1.7901,1.792,1.7923,1.7941,1.7952,1.797,1.7976,1.8001,1.8007,1.801,1.8011,1.8009,1.8008,1.8015,1.8013,1.8017,1.8017,1.8017,1.8017,0,1.7779,1.7791,1.7825,1.7846,1.7852,1.7872,1.7889,1.7906,1.7915,1.7939,1.7945,1.7959,1.798,1.7989,1.8016,1.802,1.8047,1.8048,1.804,1.804,1.8052,1.8049,1.8095,1.81,1.8071,1.8071,1.8071,0,1.7804,1.7825,1.7847,1.786,1.7872,1.7894,1.7907,1.7916,1.793,1.7951,1.7964,1.7985,1.8003,1.8036,1.8047,1.8066,1.8066,1.808,1.8068,1.8064,1.8062,1.806,1.806,1.8082,1.8082,1.8082,1.8082,0,1.7847,1.7851,1.7871,1.7892,1.7908,1.7925,1.7942,1.7952,1.7962,1.7977,1.7998,1.8011,1.8036,1.8056,1.8075,1.8084,1.8084,1.8086,1.8089,1.8087,1.808,1.8081,1.8043,1.8085,1.8085,1.8084,1.8084,1.8084,1.7875,1.7891,1.7908,1.7929,1.7942,1.7956,1.7972,1.7981,1.8,1.8021,1.8024,1.8046,1.806,1.8085,1.8095,1.811,1.8107,1.8113,1.8114,1.8115,1.8114,1.8079,1.8114,1.8114,1.8114,1.8114,1.8114,0,1.7915,1.7925,1.7944,1.7966,1.7981,1.7979,1.7996,1.8008,1.8027,1.8042,1.8057,1.8079,1.8097,1.8108,1.8125,1.8135,1.8135,1.8139,1.8138,1.8139,1.8118,1.8112,1.8139,1.8139,1.8139,1.8139,1.8139,1.8139,1.7937,1.7963,1.7968,1.7998,1.8008,1.8029,1.8038,1.805,1.806,1.8085,1.8099,1.8107,1.8118,1.8136,1.8151,1.8153,1.8158,1.8162,1.8164,1.8144,1.8141,1.8139,1.8133,1.8164,1.8164,1.8184,1.8184,1.8184]}]]